Regional Weather Roundup
Issued by NWS

Home | Current Version | Previous Version | Graphics & Text | Print | Product List | Glossary On
Versions: 1 2 3 4 5 6 7 8 9 10 11 12 13 14 15 16 17 18 19 20 21 22 23 24 25 26 27 28 29 30 31 32 33 34 35 36 37 38 39 40 41 42 43 44 45 46 47 48 49 50
828
ASUS43 KFSD 182110
RWRSD

WEATHER ROUNDUP FOR SOUTH DAKOTA
NATIONAL WEATHER SERVICE SIOUX FALLS SD
400 PM CDT FRI AUG 18 2017

NOTE: "FAIR" INDICATES FEW OR NO CLOUDS BELOW 12,000 FEET WITH NO
SIGNIFICANT WEATHER AND/OR OBSTRUCTIONS TO VISIBILITY.


SDZ001>005-009-010-012>017-182200-
NORTHWEST AND NORTH CENTRAL SOUTH DAKOTA

CITY           SKY/WX    TMP DP  RH WIND       PRES   REMARKS
BUFFALO          N/A     86  45  23 NW14      29.92F
FAITH            N/A     85  45  24 VRB3      29.98F
MOBRIDGE       SUNNY     82  58  43 N6        29.93F
$$

SDZ012>016-024>037-041>051-057-063-072>074-182200-
SOUTHWEST AND SOUTH CENTRAL SOUTH DAKOTA

CITY           SKY/WX    TMP DP  RH WIND       PRES   REMARKS
RAPID CTY ARPT SUNNY     86  41  20 CALM      30.02S
PIERRE         SUNNY     83  49  30 N13G26    29.94F
CUSTER         MOSUNNY   78  36  21 VRB7G20   30.16F
ELLSWORTH AFB  SUNNY     85  42  22 N7        30.01F
PHILIP         SUNNY     90  44  20 N14       29.96F
PINE RIDGE     SUNNY     87  46  24 N8        30.02F
SPEARFISH      LGT RAIN  82  41  23 NE8G17    30.05F
WINNER         FAIR      84  57  39 N8G17     29.97S
$$

SDZ004>011-016>023-039-040-182200-
NORTHEAST SOUTH DAKOTA

CITY           SKY/WX    TMP DP  RH WIND       PRES   REMARKS
ABERDEEN       SUNNY     77  59  53 N13G22    29.91S
WATERTOWN      PTSUNNY   73  61  65 W15G26    29.85F
BROOKINGS      PTSUNNY   78  62  57 W16G24    29.87F
SISSETON         N/A     71  64  78 NE10      29.88R
$$

SDZ017-020-022-023-036>040-048>070-182200-
SOUTHEAST SOUTH DAKOTA

CITY           SKY/WX    TMP DP  RH WIND       PRES   REMARKS
SIOUX FALLS    PTSUNNY   79  65  62 SW7       29.89F
HURON          SUNNY     77  61  57 NW21      29.90S
CHAMBERLAIN    SUNNY     84  58  42 NW10      29.94S
MITCHELL       MOSUNNY   82  61  48 NW13      29.90S
YANKTON        MOSUNNY   82  64  54 W13       29.90S
$$

ABBREVIATIONS USED IN REMARKS
   TC - TEMPERATURE IN CELSIUS
  WCI - WIND CHILL INDEX
   HX - HEAT INDEX
  VSB - VISIBILITY





USA.gov is the U.S. government's official web portal to all federal, state and local government web resources and services.